�������r�C�����j�^�v���󋵏��
Date,Time,5�C6���@���p�r�C��,����,����(m/s)
2021/08/02,00:00,4.0,��,5.0
2021/08/02,00:10,3.8,��,5.1
2021/08/02,00:20,3.9,��,3.7
2021/08/02,00:30,3.8,��,3.6
2021/08/02,00:40,3.7,��,4.0
2021/08/02,00:50,4.0,��,3.5
2021/08/02,01:00,3.8,��쐼,3.2
2021/08/02,01:10,3.9,��,4.0
2021/08/02,01:20,3.8,��쐼,5.6
2021/08/02,01:30,3.6,��쐼,5.4
2021/08/02,01:40,3.9,��,5.4
2021/08/02,01:50,3.9,��,3.6
2021/08/02,02:00,3.9,��쐼,3.3
2021/08/02,02:10,3.8,��,3.8
2021/08/02,02:20,3.9,��,4.4
2021/08/02,02:30,3.7,��,4.9
2021/08/02,02:40,3.8,��,5.8
2021/08/02,02:50,4.1,��,6.9
2021/08/02,03:00,3.8,��,6.6
2021/08/02,03:10,3.9,��,6.5
2021/08/02,03:20,3.8,��쓌,9.1
2021/08/02,03:30,3.9,��쓌,10.2
2021/08/02,03:40,3.7,��,9.9
2021/08/02,03:50,3.8,��,8.7
2021/08/02,04:00,3.9,��,7.9
2021/08/02,04:10,3.8,��쐼,7.8
2021/08/02,04:20,3.9,��,7.9
2021/08/02,04:30,3.9,��,8.2
2021/08/02,04:40,3.8,��,7.4
2021/08/02,04:50,3.8,��쐼,6.2
2021/08/02,05:00,3.9,��,6.3
2021/08/02,05:10,3.8,��쐼,5.4
2021/08/02,05:20,3.9,��쐼,5.3
2021/08/02,05:30,3.8,��쐼,4.7
2021/08/02,05:40,3.8,��,4.5
2021/08/02,05:50,3.7,��쓌,6.5
2021/08/02,06:00,3.8,��쓌,7.7
2021/08/02,06:10,3.9,��,8.1
2021/08/02,06:20,3.8,��,7.4
2021/08/02,06:30,3.9,��,7.2
2021/08/02,06:40,3.9,��,5.9
2021/08/02,06:50,4.0,��,5.4
2021/08/02,07:00,3.7,��,4.9
2021/08/02,07:10,3.8,��,4.3
2021/08/02,07:20,3.8,��,3.6
2021/08/02,07:30,3.8,��,3.9
2021/08/02,07:40,3.8,��쐼,4.2
2021/08/02,07:50,3.8,��쐼,3.4
2021/08/02,08:00,3.8,��쓌,3.7
2021/08/02,08:10,4.0,��쓌,5.8
2021/08/02,08:20,3.8,��쓌,6.9
2021/08/02,08:30,3.8,��,5.8
2021/08/02,08:40,3.9,��,5.6
2021/08/02,08:50,3.8,��,6.0
2021/08/02,09:00,3.7,��,7.2
2021/08/02,09:10,3.9,��,6.4
2021/08/02,09:20,3.8,��,6.5
2021/08/02,09:30,3.8,��,6.4
2021/08/02,09:40,3.9,��쓌,6.3
2021/08/02,09:50,3.8,��쓌,7.9
2021/08/02,10:00,3.8,��쓌,10.5
2021/08/02,10:10,3.8,��쓌,9.6
2021/08/02,10:20,4.0,��쓌,10.2
2021/08/02,10:30,3.8,��쓌,10.2
2021/08/02,10:40,4.0,��쓌,10.6
2021/08/02,10:50,3.8,��쓌,11.7
2021/08/02,11:00,3.8,��쓌,11.8
2021/08/02,11:10,3.9,��쓌,13.1
2021/08/02,11:20,3.8,��쓌,11.9
2021/08/02,11:30,3.9,��쓌,14.2
2021/08/02,11:40,3.8,��쓌,11.6
2021/08/02,11:50,3.8,��,9.9
2021/08/02,12:00,3.9,��쓌,11.6
2021/08/02,12:10,3.9,��,14.1
2021/08/02,12:20,3.8,��,10.8
2021/08/02,12:30,3.9,��쓌,10.7
2021/08/02,12:40,3.6,��쓌,12.0
2021/08/02,12:50,3.7,��쓌,13.5
2021/08/02,13:00,4.1,��쓌,13.3
2021/08/02,13:10,3.9,��쓌,11.4
2021/08/02,13:20,3.7,��,11.8
2021/08/02,13:30,3.8,��쓌,11.6
2021/08/02,13:40,3.7,��,10.0
2021/08/02,13:50,3.9,��쓌,10.8
2021/08/02,14:00,4.0,��,9.9
2021/08/02,14:10,3.9,��,8.1
2021/08/02,14:20,3.8,��,7.7
2021/08/02,14:30,3.8,��,7.4
2021/08/02,14:40,3.8,��,9.1
2021/08/02,14:50,3.8,��,8.3
2021/08/02,15:00,4.0,��,9.8
2021/08/02,15:10,3.9,��,8.9
2021/08/02,15:20,3.7,��쓌,7.6
2021/08/02,15:30,3.7,��쓌,10.6
2021/08/02,15:40,3.8,��,9.5
2021/08/02,15:50,3.8,��쓌,10.8
2021/08/02,16:00,3.9,��,10.3
2021/08/02,16:10,4.0,��쓌,11.9
2021/08/02,16:20,3.8,��쓌,12.5
2021/08/02,16:30,3.9,��쓌,12.5
2021/08/02,16:40,3.8,��쓌,12.0
2021/08/02,16:50,4.0,��쓌,11.3
2021/08/02,17:00,3.9,��쓌,11.8
2021/08/02,17:10,3.8,��,10.9
2021/08/02,17:20,3.7,��,9.1
2021/08/02,17:30,3.9,��,7.1
2021/08/02,17:40,3.8,��,8.2
2021/08/02,17:50,3.9,��,7.6
2021/08/02,18:00,4.0,��,6.8
2021/08/02,18:10,3.8,��,7.9
2021/08/02,18:20,4.0,��,7.5
2021/08/02,18:30,3.9,��,7.7
2021/08/02,18:40,3.9,��,7.3
2021/08/02,18:50,3.8,��,7.9
2021/08/02,19:00,3.9,��,7.4
2021/08/02,19:10,3.7,��,7.0
2021/08/02,19:20,3.8,��,6.0
2021/08/02,19:30,3.9,��,7.7
2021/08/02,19:40,3.8,��,6.0
2021/08/02,19:50,3.8,��,8.3
2021/08/02,20:00,3.9,��,6.3
2021/08/02,20:10,3.8,��,8.0
2021/08/02,20:20,3.8,��,9.5
2021/08/02,20:30,3.7,��,9.0
2021/08/02,20:40,3.9,��,8.4
2021/08/02,20:50,3.8,��,8.4
2021/08/02,21:00,3.9,��,8.7
2021/08/02,21:10,3.8,��,7.6
2021/08/02,21:20,3.8,��쐼,6.9
2021/08/02,21:30,3.8,��쐼,8.2
2021/08/02,21:40,3.8,��,7.7
2021/08/02,21:50,3.6,��,8.9
2021/08/02,22:00,4.0,��,7.4
2021/08/02,22:10,3.9,��,6.0
2021/08/02,22:20,4.0,��,5.7
2021/08/02,22:30,3.8,��,8.4
2021/08/02,22:40,3.9,��,7.6
2021/08/02,22:50,3.8,��,6.9
2021/08/02,23:00,4.0,��,7.6
2021/08/02,23:10,3.7,��,7.1
2021/08/02,23:20,3.9,��,6.4
2021/08/02,23:30,3.9,��,7.2
2021/08/02,23:40,3.9,��,6.2
2021/08/02,23:50,3.9,��,7.6
